Regional Weather Roundup
Issued by NWS Sterling, VA

Home | Current Version | Previous Version | Graphics & Text | Print | Product List | Glossary On
Versions: 1 2 3 4 5 6 7 8 9 10 11 12 13 14 15 16 17 18 19 20 21 22 23 24 25 26 27 28 29 30 31 32 33 34 35 36 37 38 39 40 41 42 43 44 45 46 47 48 49 50
000
ASUS41 KLWX 272310
RWRLWX

REGIONAL WEATHER ROUNDUP
NATIONAL WEATHER SERVICE BALTIMORE MD/WASHINGTON DC
700 PM EDT MON JUL 27 2015

Note: "FAIR" indicates few or no clouds below 12,000 feet
with no significant weather and/or obstructions to visibility.
 TC=TEMPERATURE CELSIUS

 * =Non NWS site. Station does not report precipitation (e.g. rain,
    snow, etc.), thunder, or fog.

DCZ001-MDZ009-015-VAZ040>042-051-053>054-280000-
WASHINGTON METRO

CITY           SKY/WX    TMP DP  RH WIND       PRES   REMARKS
WASHINGTON NAT MOSUNNY   85  69  58 E3        29.97R
DULLES         MOSUNNY   82  71  69 CALM      29.97R
ANDREWS AFB    MOSUNNY   81  72  73 SE5       29.97R
FT BELVOIR     SUNNY     82  73  75 CALM      29.96R
QUANTICO       MOSUNNY   85  73  67 E6        29.96R HX  91
COLLEGE PARK*  SUNNY     82  70  65 CALM      29.96R
LEESBURG*      PTSUNNY   86  73  66 S14       29.98R HX  93
MANASSAS*      SUNNY     84  73  70 E3        29.96S HX  91
GAITHERSBURG*  SUNNY     81  66  61 S6        30.01S

$$

MDZ006>007-011-014-280000-
BALTIMORE METRO

CITY           SKY/WX    TMP DP  RH WIND       PRES   REMARKS
BWI AIRPORT    MOSUNNY   82  73  74 SE6       29.96S
MD SCIENCE CTR   N/A     84  71  65 MISG      29.96S
MARTIN STATE   MOSUNNY   82  75  78 E5        29.98S
ANNAPOLIS      MOSUNNY   82  73  74 S9        29.96R
FORT MEADE*    MOSUNNY   79  73  83 SE6       29.99R

$$

MDZ012-015-019>023-280000-
MARYLAND EASTERN SHORE

CITY           SKY/WX    TMP DP  RH WIND       PRES   REMARKS
OCEAN CITY     PTSUNNY   77  69  76 SW8       29.99F
SALISBURY      MOSUNNY   76  71  85 S7        29.99S
BAY BRIDGE AP*   N/A     81  72  74 S6        29.97R
CAMBRIDGE*     PTSUNNY   81  66  61 S7        29.97S
EASTON*        CLOUDY    84  73  70 S9        30.00S HX  91

$$

MDZ017>025-280000-
SOUTHERN MARYLAND

CITY           SKY/WX    TMP DP  RH WIND       PRES   REMARKS
PATUXENT RIVER MOSUNNY   81  73  76 SE12      29.96S
ST INIGOES     MOSUNNY   82  73  74 SE5       29.96S
LEONARDTOWN*   MOSUNNY   81  72  74 SE5       29.98S

$$

MDZ003>005-280000-
NORTH CENTRAL MARYLAND

CITY           SKY/WX    TMP DP  RH WIND       PRES   REMARKS
FREDERICK*     SUNNY     84  73  70 VRB5      29.99S HX  91
HAGERSTOWN APT SUNNY     84  69  60 E7        29.97F
WESTMINSTER*   SUNNY     84  72  65 SE3       29.99S

$$

MDZ501>502-280000-
WESTERN MARYLAND

CITY           SKY/WX    TMP DP  RH WIND       PRES   REMARKS
OAKLAND*       MOSUNNY   77  77 100 CALM      30.08F
CUMBERLAND*    MOSUNNY   82  72  69 SW3       30.00F

$$

VAZ025>031-280000-
SHENANDOAH VALLEY

CITY           SKY/WX    TMP DP  RH WIND       PRES   REMARKS
WINCHESTER*    MOSUNNY   84  72  65 SW5       29.98R
FRONT ROYAL*   FAIR      79  73  83 N3        29.96F
LURAY*         MOCLDY    79  70  73 SW6       29.98F
NEW MARKET*    FAIR      73  70  91 CALM      29.98F
STAUNTON*      PTSUNNY   81  69  66 S6        30.03S
WAYNESBORO*    FAIR      73  71  93 MISG      30.03R

$$

WVZ021-048>050-054>055-280000-
EASTERN WEST VIRGINIA PANHANDLE

CITY           SKY/WX    TMP DP  RH WIND       PRES   REMARKS
MARTINSBURG    MOSUNNY   81  71  71 SE5       29.97S
PETERSBURG*    PTSUNNY  N/A N/A N/A E12G17    29.99R THUNDER

$$

VAZ036>039-050-280000-
CENTRAL FOOTHILLS

CITY           SKY/WX    TMP DP  RH WIND       PRES   REMARKS
CHARLOTTESVILL PTSUNNY   75  71  87 N3        29.98S
CULPEPER*      MOSUNNY   82  74  75 CALM      29.96F
ORANGE*        MOSUNNY   84  73  70 SW3       29.98S HX  91
GORDONSVILLE*  MOCLDY    79  73  83 SW3       29.97S
WARRENTON*     FAIR      84  75  74 CALM      29.96S HX  92

$$

VAZ055>057-280000-
NORTH AND CENTRAL PIEDMONT

CITY           SKY/WX    TMP DP  RH WIND       PRES   REMARKS
FREDERICKSBRG* MOSUNNY   85  72  64 SE6       29.95R HX  91
STAFFORD*      SUNNY     83  71  66 E3        30.00R

$$

NCZ024-NYZ072-PAZ021-071-VAZ022-071-280000-
OTHER REGIONAL OBSERVATIONS

CITY           SKY/WX    TMP DP  RH WIND       PRES   REMARKS
NEW YORK CITY  MOSUNNY   80  68  66 MISG      30.01S
PHILADELPHIA   MOSUNNY   83  69  62 S9        29.97S
PITTSBURGH     MOSUNNY   88  61  40 N9        29.98F
ROANOKE        PTSUNNY   82  71  69 CALM      30.01R
RICHMOND       LGT RAIN  82  75  79 S7        29.96S
RALEIGH        PTSUNNY   87  72  60 SE8       29.97S HX  93

$$

ANZ530>537-280000-
MARINE OBSERVATIONS

STATION/POSITION TIME  TEMP    WIND        PRES
                       AIR SEA DIR/SP/G
                 (UTC) (F)     (DEG/KT/KT) (MB)
THOMAS PT LIGHT  NOT AVBL
BALT KEY BRIDGE  2200   81     110/  4/  5 1014.3F
COVE POINT       2200   80     180/ 16/ 18 1015.4F
LEWISETTA        2200   84 85  180/  8/ 10 1014.3R
SOLOMONS ISLAND  2200      84                N/A

$$




USA.gov is the U.S. government's official web portal to all federal, state and local government web resources and services.